Date String (YYYY-MM-DD hh:mm:ss) UTC,Instrument flags,Ambient pressure (hPa),Sample flow (lpm),Bypass flow (lpm),Sample temperature (°C),Ambient temperature (°C),ASC tube jacket temperature (°C),LED temperature (°C),Box temperature (°C),Sample RH (%),Span deviation,Mass concentration (μg/m³),Mass concentration (μg/m³),Mass concentration (μg/m³)
DateTimeUTC,F1_M11,P_M11,Q1_M11,Q2_M11,T1_M11,T2_M11,T3_M11,T4_M11,T5_M11,U1_M11,ZSPAN_M11,X0_M11,X2_M11,X1_M11
2022-12-29 23:00:00,,0818.4,5.04,0.00,21.6,21.3,00.0,30.3,23.4,07.7,0000.0,0000.77,0000.54,0000.46
2022-12-29 23:01:00,,0818.4,5.03,0.00,21.6,21.1,00.0,30.3,23.4,07.5,0000.0,0000.83,0000.56,0000.47
2022-12-29 23:02:00,,0818.4,4.98,0.00,21.6,20.9,00.0,30.3,23.4,07.4,0000.0,0000.76,0000.54,0000.48
2022-12-29 23:03:00,,0818.4,4.96,0.00,21.6,20.8,00.0,30.4,23.4,07.2,0000.0,0000.75,0000.53,0000.47
2022-12-29 23:04:00,,0818.4,5.01,0.00,21.6,20.8,00.0,30.4,23.4,07.2,0000.0,0000.74,0000.53,0000.47
2022-12-29 23:05:00,,0818.4,5.03,0.00,21.7,20.8,00.0,30.4,23.4,07.2,0000.0,0000.85,0000.54,0000.47
2022-12-29 23:06:00,,0818.4,5.02,0.00,21.7,20.8,00.0,30.4,23.4,07.2,0000.0,0000.93,0000.56,0000.48
2022-12-29 23:07:00,,0818.4,4.99,0.00,21.7,20.8,00.0,30.4,23.5,07.1,0000.0,0000.93,0000.56,0000.48
2022-12-29 23:08:00,,0818.4,4.97,0.00,21.7,20.8,00.0,30.5,23.5,07.0,0000.0,0000.93,0000.57,0000.48
2022-12-29 23:09:00,,0818.4,4.96,0.00,21.7,20.8,00.0,30.5,23.5,07.2,0000.0,0000.96,0000.58,0000.49
2022-12-29 23:10:00,,0818.4,5.02,0.00,21.8,20.8,00.0,30.5,23.5,07.2,0000.0,0001.01,0000.59,0000.49
2022-12-29 23:11:00,,0818.4,5.03,0.00,21.8,20.8,00.0,30.5,23.5,07.3,0000.0,0001.02,0000.60,0000.49
2022-12-29 23:12:00,,0818.4,4.99,0.00,21.8,20.8,00.0,30.5,23.5,07.2,0000.0,0001.01,0000.59,0000.49
2022-12-29 23:13:00,,0818.5,4.98,0.00,21.8,20.7,00.0,30.5,23.6,07.1,0000.0,0001.01,0000.58,0000.48
2022-12-29 23:14:00,,0818.4,4.99,0.00,21.8,20.7,00.0,30.6,23.5,07.1,0000.0,0001.02,0000.58,0000.48
2022-12-29 23:15:00,,0818.4,5.02,0.00,21.8,20.7,00.0,30.6,23.5,07.2,0000.0,0001.03,0000.59,0000.48
2022-12-29 23:16:00,,0818.4,5.02,0.00,21.8,20.6,00.0,30.6,23.5,07.2,0000.0,0001.33,0000.60,0000.49
2022-12-29 23:17:00,,0818.4,4.96,0.00,21.8,20.6,00.0,30.6,23.5,07.1,0000.0,0002.11,0000.59,0000.48
2022-12-29 23:18:00,,0818.5,4.99,0.00,21.8,20.6,00.0,30.6,23.5,07.0,0000.0,0002.14,0000.59,0000.48
2022-12-29 23:19:00,,0818.5,5.01,0.00,21.8,20.6,00.0,30.6,23.5,07.1,0000.0,0002.12,0000.59,0000.48
2022-12-29 23:20:00,,0818.5,5.01,0.00,21.8,20.5,00.0,30.6,23.4,07.1,0000.0,0002.16,0000.60,0000.48
2022-12-29 23:21:00,,0818.4,4.99,0.00,21.8,20.5,00.0,30.6,23.4,07.4,0000.0,0002.18,0000.60,0000.47
2022-12-29 23:22:00,,0818.5,5.01,0.00,21.8,20.5,00.0,30.6,23.5,07.4,0000.0,0002.20,0000.62,0000.48
2022-12-29 23:23:00,,0818.4,4.98,0.00,21.8,20.5,00.0,30.6,23.5,07.3,0000.0,0002.22,0000.64,0000.49
2022-12-29 23:24:00,,0818.4,4.97,0.00,21.8,20.6,00.0,30.6,23.5,07.1,0000.0,0002.25,0000.65,0000.50
2022-12-29 23:25:00,,0818.5,5.00,0.00,21.8,20.6,00.0,30.6,23.5,07.2,0000.0,0002.24,0000.65,0000.50
2022-12-29 23:26:00,,0818.4,4.97,0.00,21.8,20.6,00.0,30.6,23.6,07.2,0000.0,0002.26,0000.66,0000.51
2022-12-29 23:27:00,,0818.4,4.99,0.00,21.8,20.6,00.0,30.6,23.6,07.1,0000.0,0001.99,0000.68,0000.52
2022-12-29 23:28:00,,0818.4,5.02,0.00,21.8,20.6,00.0,30.6,23.6,07.1,0000.0,0001.12,0000.70,0000.53
2022-12-29 23:29:00,,0818.5,4.99,0.00,21.8,20.5,00.0,30.6,23.5,07.1,0000.0,0001.06,0000.68,0000.54
2022-12-29 23:30:00,,0818.6,4.97,0.00,21.8,20.5,00.0,30.6,23.5,07.1,0000.0,0001.07,0000.67,0000.54
2022-12-29 23:31:00,,0818.6,5.00,0.00,21.8,20.4,00.0,30.6,23.5,07.1,0000.0,0001.02,0000.65,0000.54
2022-12-29 23:32:00,,0818.6,5.02,0.00,21.8,20.5,00.0,30.6,23.5,07.1,0000.0,0000.96,0000.64,0000.54
2022-12-29 23:33:00,,0818.7,4.98,0.00,21.8,20.5,00.0,30.6,23.5,07.3,0000.0,0000.93,0000.64,0000.54
2022-12-29 23:34:00,,0818.7,5.06,0.00,21.8,20.5,00.0,30.6,23.6,07.5,0000.0,0000.87,0000.61,0000.53
2022-12-29 23:35:00,,0818.7,4.99,0.00,21.8,20.5,00.0,30.6,23.6,07.4,0000.0,0000.87,0000.61,0000.53
2022-12-29 23:36:00,,0818.7,5.01,0.00,21.8,21.0,00.0,30.6,23.7,07.3,0000.0,0000.87,0000.61,0000.52
2022-12-29 23:37:00,,0818.7,4.98,0.00,22.0,22.0,00.0,30.6,23.9,07.2,0000.0,0000.86,0000.60,0000.51
2022-12-29 23:38:00,,0818.7,4.98,0.00,22.1,22.7,00.0,30.6,24.2,07.4,0000.0,0000.90,0000.59,0000.50
2022-12-29 23:39:00,,0818.8,5.04,0.00,22.2,22.5,00.0,30.7,24.2,07.4,0000.0,0000.90,0000.59,0000.49
2022-12-29 23:40:00,,0818.8,5.03,0.00,22.2,22.1,00.0,30.8,24.1,07.4,0000.0,0000.91,0000.58,0000.48
2022-12-29 23:41:00,,0818.8,4.99,0.00,22.2,21.9,00.0,30.8,24.1,07.5,0000.0,0001.01,0000.62,0000.48
2022-12-29 23:42:00,,0818.8,4.98,0.00,22.2,21.7,00.0,30.8,24.1,07.7,0000.0,0001.03,0000.63,0000.48
2022-12-29 23:43:00,,0818.8,5.00,0.00,22.2,21.6,00.0,30.9,24.1,07.8,0000.0,0001.14,0000.63,0000.48
2022-12-29 23:44:00,,0818.8,5.04,0.00,22.2,21.4,00.0,30.9,24.1,07.7,0000.0,0001.21,0000.65,0000.48
2022-12-29 23:45:00,,0818.8,5.03,0.00,22.2,21.3,00.0,30.9,24.0,07.6,0000.0,0001.24,0000.66,0000.48
2022-12-29 23:46:00,,0818.8,4.97,0.00,22.2,21.2,00.0,30.9,24.0,07.5,0000.0,0001.19,0000.64,0000.47
2022-12-29 23:47:00,,0818.9,4.98,0.00,22.2,21.1,00.0,31.0,24.0,07.6,0000.0,0001.25,0000.66,0000.47
2022-12-29 23:48:00,,0818.9,5.00,0.00,22.2,21.0,00.0,31.0,23.9,07.4,0000.0,0001.29,0000.68,0000.48
2022-12-29 23:49:00,,0818.8,5.01,0.00,22.2,20.9,00.0,31.0,23.9,07.5,0000.0,0001.28,0000.68,0000.48
2022-12-29 23:50:00,,0818.9,4.99,0.00,22.2,20.9,00.0,31.0,23.9,07.6,0000.0,0001.25,0000.67,0000.48
2022-12-29 23:51:00,,0818.9,5.01,0.00,22.2,20.9,00.0,31.0,23.9,07.9,0000.0,0002.17,0000.76,0000.51
2022-12-29 23:52:00,,0818.9,5.02,0.00,22.2,20.8,00.0,31.0,23.9,08.0,0000.0,0002.82,0000.77,0000.54
2022-12-29 23:53:00,,0818.9,4.98,0.00,22.2,20.8,00.0,31.0,23.9,07.9,0000.0,0004.11,0000.83,0000.58
2022-12-29 23:54:00,,0818.9,4.98,0.00,22.2,20.9,00.0,31.0,23.9,08.0,0000.0,0004.99,0000.92,0000.62
2022-12-29 23:55:00,,0819.0,5.02,0.00,22.2,20.9,00.0,31.0,24.0,08.0,0000.0,0005.37,0000.98,0000.66
2022-12-29 23:56:00,,0818.9,4.98,0.00,22.2,20.9,00.0,31.0,24.0,08.1,0000.0,0006.06,0001.06,0000.70
2022-12-29 23:57:00,,0818.9,5.05,0.00,22.2,20.9,00.0,31.0,23.9,08.1,0000.0,0006.19,0001.17,0000.78
2022-12-29 23:58:00,,0818.9,4.97,0.00,22.2,20.9,00.0,31.0,24.0,07.9,0000.0,0006.34,0001.26,0000.83
2022-12-29 23:59:00,,0818.9,4.98,0.00,22.2,20.9,00.0,31.0,24.0,07.9,0000.0,0006.95,0001.33,0000.89
